Time,TemperatureF,DewpointF,PressureIn,WindDirection,WindDirectionDegrees,WindSpeedMPH,WindSpeedGustMPH,Humidity,HourlyPrecipIn,Conditions,Clouds,dailyrainin,SoftwareType,DateUTC
2013-02-20 00:00:00,17.2,10.0,30.07,North,355,14.0,22.0,73,0.00,,,0.00,Wunderground v.1.15,2013-02-20 06:00:00,
2013-02-20 00:05:00,17.0,9.5,30.07,NNW,333,16.0,22.0,72,0.00,,,0.00,Wunderground v.1.15,2013-02-20 06:05:00,
2013-02-20 00:10:00,17.2,9.4,30.07,NW,325,15.0,19.0,71,0.00,,,0.00,Wunderground v.1.15,2013-02-20 06:10:00,
2013-02-20 00:15:00,17.2,9.4,30.08,NNW,340,13.0,19.0,71,0.00,,,0.00,Wunderground v.1.15,2013-02-20 06:15:00,
2013-02-20 00:20:00,17.2,9.7,30.08,NW,316,13.0,20.0,72,0.00,,,0.00,Wunderground v.1.15,2013-02-20 06:20:00,
2013-02-20 00:24:00,17.3,9.8,30.08,NW,317,13.0,20.0,72,0.00,,,0.00,Wunderground v.1.15,2013-02-20 06:24:00,
2013-02-20 00:30:00,17.5,10.3,30.08,NNW,329,13.0,13.0,73,0.00,,,0.00,Wunderground v.1.15,2013-02-20 06:30:00,
2013-02-20 00:35:00,17.3,9.5,30.08,NNW,340,14.0,19.0,71,0.00,,,0.00,Wunderground v.1.15,2013-02-20 06:35:00,
2013-02-20 00:39:00,17.5,10.3,30.08,NW,318,14.0,19.0,73,0.00,,,0.00,Wunderground v.1.15,2013-02-20 06:39:00,
2013-02-20 00:44:00,17.5,10.3,30.08,NNW,332,14.0,19.0,73,0.00,,,0.00,Wunderground v.1.15,2013-02-20 06:44:00,
2013-02-20 00:49:00,17.5,10.0,30.09,NNW,339,13.0,13.0,72,0.00,,,0.00,Wunderground v.1.15,2013-02-20 06:49:00,
2013-02-20 00:55:00,17.7,10.5,30.09,NW,323,12.0,13.0,73,0.00,,,0.00,Wunderground v.1.15,2013-02-20 06:55:00,
2013-02-20 01:00:00,17.7,10.2,30.10,NNW,346,13.0,14.0,72,0.00,,,0.00,Wunderground v.1.15,2013-02-20 07:00:00,
2013-02-20 01:05:00,17.7,10.5,30.10,NNW,342,14.0,14.0,73,0.00,,,0.00,Wunderground v.1.15,2013-02-20 07:05:00,
2013-02-20 01:10:00,17.7,10.2,30.10,NNW,331,13.0,13.0,72,0.00,,,0.00,Wunderground v.1.15,2013-02-20 07:10:00,
2013-02-20 01:15:00,17.8,10.6,30.10,NNW,338,13.0,13.0,73,0.00,,,0.00,Wunderground v.1.15,2013-02-20 07:15:00,
2013-02-20 01:20:00,17.8,10.3,30.10,NNW,348,13.0,13.0,72,0.00,,,0.00,Wunderground v.1.15,2013-02-20 07:20:00,
2013-02-20 01:25:00,17.8,10.3,30.10,NNW,327,13.0,13.0,72,0.00,,,0.00,Wunderground v.1.15,2013-02-20 07:25:00,
2013-02-20 01:30:00,17.8,9.7,30.10,NNW,340,12.0,19.0,70,0.00,,,0.00,Wunderground v.1.15,2013-02-20 07:30:00,
2013-02-20 01:34:00,17.8,9.0,30.10,NNW,341,14.0,19.0,68,0.00,,,0.00,Wunderground v.1.15,2013-02-20 07:34:00,
2013-02-20 01:39:00,17.5,10.0,30.10,NNE,17,15.0,16.0,72,0.00,,,0.00,Wunderground v.1.15,2013-02-20 07:39:00,
2013-02-20 01:44:00,17.5,10.3,30.10,NNW,345,15.0,16.0,73,0.00,,,0.00,Wunderground v.1.15,2013-02-20 07:44:00,
2013-02-20 01:50:00,17.7,9.9,30.10,NNW,330,16.0,16.0,71,0.00,,,0.00,Wunderground v.1.15,2013-02-20 07:50:00,
2013-02-20 01:54:00,17.7,9.9,30.10,North,360,15.0,16.0,71,0.00,,,0.00,Wunderground v.1.15,2013-02-20 07:54:00,
2013-02-20 01:59:00,17.8,9.7,30.10,North,349,14.0,18.0,70,0.00,,,0.00,Wunderground v.1.15,2013-02-20 07:59:00,
2013-02-20 02:05:00,17.8,10.0,30.11,NNW,342,15.0,18.0,71,0.00,,,0.00,Wunderground v.1.15,2013-02-20 08:05:00,
2013-02-20 02:10:00,17.7,10.5,30.11,NW,317,14.0,20.0,73,0.00,,,0.00,Wunderground v.1.15,2013-02-20 08:10:00,
2013-02-20 02:15:00,17.5,10.6,30.11,WNW,297,13.0,20.0,74,0.00,,,0.00,Wunderground v.1.15,2013-02-20 08:15:00,
2013-02-20 02:20:00,17.7,9.9,30.11,NNW,342,14.0,20.0,71,0.00,,,0.00,Wunderground v.1.15,2013-02-20 08:20:00,
2013-02-20 02:25:00,17.7,10.5,30.11,NW,319,15.0,20.0,73,0.00,,,0.00,Wunderground v.1.15,2013-02-20 08:25:00,
2013-02-20 02:30:00,17.3,10.1,30.12,NNW,339,15.0,18.0,73,0.00,,,0.00,Wunderground v.1.15,2013-02-20 08:30:00,
2013-02-20 02:34:00,17.3,9.8,30.12,NW,319,15.0,18.0,72,0.00,,,0.00,Wunderground v.1.15,2013-02-20 08:34:00,
2013-02-20 02:39:00,17.3,9.5,30.12,NNW,348,16.0,19.0,71,0.00,,,0.00,Wunderground v.1.15,2013-02-20 08:39:00,
2013-02-20 02:44:00,17.2,10.3,30.12,NNW,330,15.0,19.0,74,0.00,,,0.00,Wunderground v.1.15,2013-02-20 08:44:00,
2013-02-20 02:50:00,17.2,10.9,30.12,NNW,340,14.0,14.0,76,0.00,,,0.00,Wunderground v.1.15,2013-02-20 08:50:00,
2013-02-20 02:55:00,17.2,10.6,30.12,North,355,15.0,15.0,75,0.00,,,0.00,Wunderground v.1.15,2013-02-20 08:55:00,
2013-02-20 02:59:00,17.2,10.9,30.12,North,350,15.0,15.0,76,0.00,,,0.00,Wunderground v.1.15,2013-02-20 08:59:00,
2013-02-20 03:05:00,17.0,10.7,30.12,North,350,15.0,15.0,76,0.00,,,0.00,Wunderground v.1.15,2013-02-20 09:05:00,
2013-02-20 03:10:00,17.2,10.6,30.12,NNW,336,14.0,17.0,75,0.00,,,0.00,Wunderground v.1.15,2013-02-20 09:10:00,
2013-02-20 03:15:00,17.3,9.8,30.13,NNW,338,14.0,17.0,72,0.00,,,0.00,Wunderground v.1.15,2013-02-20 09:15:00,
2013-02-20 03:20:00,17.3,10.4,30.13,NNW,333,14.0,14.0,74,0.00,,,0.00,Wunderground v.1.15,2013-02-20 09:20:00,
2013-02-20 03:25:00,17.2,10.9,30.13,NNW,337,14.0,16.0,76,0.00,,,0.00,Wunderground v.1.15,2013-02-20 09:25:00,
2013-02-20 03:30:00,17.3,10.7,30.13,NNW,329,15.0,15.0,75,0.00,,,0.00,Wunderground v.1.15,2013-02-20 09:30:00,
2013-02-20 03:35:00,17.2,10.6,30.13,NNW,340,15.0,15.0,75,0.00,,,0.00,Wunderground v.1.15,2013-02-20 09:35:00,
2013-02-20 03:39:00,17.2,10.3,30.13,NW,318,15.0,17.0,74,0.00,,,0.00,Wunderground v.1.15,2013-02-20 09:39:00,
2013-02-20 03:44:00,17.3,11.0,30.13,NNW,343,16.0,17.0,76,0.00,,,0.00,Wunderground v.1.15,2013-02-20 09:44:00,
2013-02-20 03:49:00,17.2,10.9,30.14,NNW,333,15.0,15.0,76,0.00,,,0.00,Wunderground v.1.15,2013-02-20 09:49:00,
2013-02-20 03:54:00,17.2,9.4,30.14,North,360,16.0,16.0,71,0.00,,,0.00,Wunderground v.1.15,2013-02-20 09:54:00,
2013-02-20 04:00:00,17.2,10.0,30.14,North,355,15.0,18.0,73,0.00,,,0.00,Wunderground v.1.15,2013-02-20 10:00:00,
2013-02-20 04:05:00,17.2,10.0,30.15,NNE,12,15.0,18.0,73,0.00,,,0.00,Wunderground v.1.15,2013-02-20 10:05:00,
2013-02-20 04:10:00,17.2,10.0,30.15,North,350,15.0,20.0,73,0.00,,,0.00,Wunderground v.1.15,2013-02-20 10:10:00,
2013-02-20 04:15:00,17.2,10.0,30.15,NNW,344,17.0,20.0,73,0.00,,,0.00,Wunderground v.1.15,2013-02-20 10:15:00,
2013-02-20 04:20:00,17.3,10.1,30.15,NW,315,17.0,17.0,73,0.00,,,0.00,Wunderground v.1.15,2013-02-20 10:20:00,
2013-02-20 04:25:00,17.2,9.4,30.15,NNW,338,16.0,17.0,71,0.00,,,0.00,Wunderground v.1.15,2013-02-20 10:25:00,
2013-02-20 04:35:00,17.2,9.4,30.16,North,5,16.0,17.0,71,0.00,,,0.00,Wunderground v.1.15,2013-02-20 10:35:00,
2013-02-20 04:40:00,17.3,9.5,30.16,NNW,336,15.0,19.0,71,0.00,,,0.00,Wunderground v.1.15,2013-02-20 10:40:00,
2013-02-20 04:45:00,17.2,10.3,30.16,NNW,342,15.0,19.0,74,0.00,,,0.00,Wunderground v.1.15,2013-02-20 10:45:00,
2013-02-20 04:50:00,17.3,10.7,30.16,NNW,339,14.0,14.0,75,0.00,,,0.00,Wunderground v.1.15,2013-02-20 10:50:00,
2013-02-20 04:55:00,17.3,10.7,30.16,North,360,13.0,14.0,75,0.00,,,0.00,Wunderground v.1.15,2013-02-20 10:55:00,
2013-02-20 05:05:00,17.3,10.4,30.17,NNW,339,14.0,14.0,74,0.00,,,0.00,Wunderground v.1.15,2013-02-20 11:05:00,
2013-02-20 05:10:00,17.5,10.3,30.17,NNW,342,14.0,19.0,73,0.00,,,0.00,Wunderground v.1.15,2013-02-20 11:10:00,
2013-02-20 05:15:00,17.5,10.3,30.18,NNW,336,14.0,19.0,73,0.00,,,0.00,Wunderground v.1.15,2013-02-20 11:15:00,
2013-02-20 05:20:00,17.5,10.6,30.18,NNW,327,14.0,14.0,74,0.00,,,0.00,Wunderground v.1.15,2013-02-20 11:20:00,
2013-02-20 05:25:00,17.3,9.8,30.18,North,349,14.0,18.0,72,0.00,,,0.00,Wunderground v.1.15,2013-02-20 11:25:00,
2013-02-20 05:30:00,17.2,9.4,30.18,NNW,336,14.0,19.0,71,0.00,,,0.00,Wunderground v.1.15,2013-02-20 11:30:00,
2013-02-20 05:35:00,17.3,9.5,30.18,NNW,327,15.0,19.0,71,0.00,,,0.00,Wunderground v.1.15,2013-02-20 11:35:00,
2013-02-20 05:44:00,17.3,9.8,30.18,NNW,333,15.0,16.0,72,0.00,,,0.00,Wunderground v.1.15,2013-02-20 11:44:00,
2013-02-20 05:49:00,17.3,10.1,30.18,NNW,340,15.0,15.0,73,0.00,,,0.00,Wunderground v.1.15,2013-02-20 11:49:00,
2013-02-20 05:55:00,17.3,11.0,30.18,North,350,15.0,15.0,76,0.00,,,0.00,Wunderground v.1.15,2013-02-20 11:55:00,
2013-02-20 05:59:00,17.3,11.0,30.18,NNW,328,14.0,14.0,76,0.00,,,0.00,Wunderground v.1.15,2013-02-20 11:59:00,
2013-02-20 06:05:00,17.5,10.0,30.18,NNE,21,15.0,15.0,72,0.00,,,0.00,Wunderground v.1.15,2013-02-20 12:05:00,
2013-02-20 06:10:00,17.5,10.3,30.18,North,360,15.0,19.0,73,0.00,,,0.00,Wunderground v.1.15,2013-02-20 12:10:00,
2013-02-20 06:15:00,17.8,9.7,30.18,NW,312,15.0,19.0,70,0.00,,,0.00,Wunderground v.1.15,2013-02-20 12:15:00,
2013-02-20 06:20:00,17.7,10.5,30.18,NW,316,16.0,16.0,73,0.00,,,0.00,Wunderground v.1.15,2013-02-20 12:20:00,
2013-02-20 06:25:00,17.7,10.8,30.18,NNW,343,16.0,17.0,74,0.00,,,0.00,Wunderground v.1.15,2013-02-20 12:25:00,
2013-02-20 06:30:00,17.7,11.4,30.18,NNW,336,16.0,17.0,76,0.00,,,0.00,Wunderground v.1.15,2013-02-20 12:30:00,
2013-02-20 06:35:00,17.8,11.5,30.18,NNW,342,16.0,17.0,76,0.00,,,0.00,Wunderground v.1.15,2013-02-20 12:35:00,
2013-02-20 06:40:00,17.8,11.5,30.18,NNW,328,15.0,20.0,76,0.00,,,0.00,Wunderground v.1.15,2013-02-20 12:40:00,
2013-02-20 06:45:00,18.1,11.2,30.19,NNW,327,15.0,20.0,74,0.00,,,0.00,Wunderground v.1.15,2013-02-20 12:45:00,
2013-02-20 06:50:00,18.3,11.1,30.19,NW,325,15.0,15.0,73,0.00,,,0.00,Wunderground v.1.15,2013-02-20 12:50:00,
2013-02-20 06:59:00,18.1,10.6,30.19,North,11,16.0,16.0,72,0.00,,,0.00,Wunderground v.1.15,2013-02-20 12:59:00,
2013-02-20 07:05:00,18.3,11.7,30.18,NW,323,15.0,16.0,75,0.00,,,0.00,Wunderground v.1.15,2013-02-20 13:05:00,
2013-02-20 07:10:00,18.6,12.0,30.18,North,5,15.0,15.0,75,0.00,,,0.00,Wunderground v.1.15,2013-02-20 13:10:00,
2013-02-20 07:20:00,18.3,11.7,30.19,NNW,339,15.0,18.0,75,0.00,,,0.00,Wunderground v.1.15,2013-02-20 13:20:00,
2013-02-20 07:25:00,18.4,12.1,30.19,NNW,333,15.0,18.0,76,0.00,,,0.00,Wunderground v.1.15,2013-02-20 13:25:00,
2013-02-20 07:30:00,18.6,12.0,30.19,NNW,344,14.0,14.0,75,0.00,,,0.00,Wunderground v.1.15,2013-02-20 13:30:00,
2013-02-20 07:35:00,18.6,12.3,30.19,North,360,15.0,15.0,76,0.00,,,0.00,Wunderground v.1.15,2013-02-20 13:35:00,
2013-02-20 07:40:00,18.4,12.1,30.19,North,355,15.0,18.0,76,0.00,,,0.00,Wunderground v.1.15,2013-02-20 13:40:00,
2013-02-20 07:45:00,18.3,12.3,30.20,North,5,14.0,18.0,77,0.00,,,0.00,Wunderground v.1.15,2013-02-20 13:45:00,
2013-02-20 07:50:00,18.6,12.0,30.20,North,5,16.0,17.0,75,0.00,,,0.00,Wunderground v.1.15,2013-02-20 13:50:00,
2013-02-20 07:55:00,18.8,11.9,30.20,NW,320,16.0,20.0,74,0.00,,,0.00,Wunderground v.1.15,2013-02-20 13:55:00,
2013-02-20 08:05:00,18.9,12.3,30.20,NNW,348,15.0,16.0,75,0.00,,,0.00,Wunderground v.1.15,2013-02-20 14:05:00,
2013-02-20 08:10:00,18.8,12.5,30.20,NNW,340,16.0,16.0,76,0.00,,,0.00,Wunderground v.1.15,2013-02-20 14:10:00,
2013-02-20 08:15:00,18.8,11.9,30.20,NNW,340,16.0,16.0,74,0.00,,,0.00,Wunderground v.1.15,2013-02-20 14:15:00,
2013-02-20 08:20:00,18.8,12.2,30.20,North,355,15.0,15.0,75,0.00,,,0.00,Wunderground v.1.15,2013-02-20 14:20:00,
2013-02-20 08:25:00,18.8,12.2,30.20,NNW,333,14.0,19.0,75,0.00,,,0.00,Wunderground v.1.15,2013-02-20 14:25:00,
2013-02-20 08:30:00,18.9,12.0,30.20,North,355,14.0,20.0,74,0.00,,,0.00,Wunderground v.1.15,2013-02-20 14:30:00,
2013-02-20 08:35:00,19.1,11.9,30.20,North,9,15.0,20.0,73,0.00,,,0.00,Wunderground v.1.15,2013-02-20 14:35:00,
2013-02-20 08:40:00,19.2,12.6,30.20,North,355,15.0,15.0,75,0.00,,,0.00,Wunderground v.1.15,2013-02-20 14:40:00,
2013-02-20 08:45:00,19.2,12.9,30.20,North,350,14.0,20.0,76,0.00,,,0.00,Wunderground v.1.15,2013-02-20 14:45:00,
2013-02-20 08:50:00,19.2,11.0,30.20,NNW,335,15.0,16.0,70,0.00,,,0.00,Wunderground v.1.15,2013-02-20 14:50:00,
2013-02-20 08:55:00,19.5,11.3,30.20,North,355,15.0,16.0,70,0.00,,,0.00,Wunderground v.1.15,2013-02-20 14:55:00,
2013-02-20 09:00:00,19.9,11.0,30.20,North,355,15.0,15.0,68,0.00,,,0.00,Wunderground v.1.15,2013-02-20 15:00:00,
2013-02-20 09:10:00,19.9,11.4,30.20,NNW,348,14.0,14.0,69,0.00,,,0.00,Wunderground v.1.15,2013-02-20 15:10:00,
2013-02-20 09:15:00,19.7,10.8,30.21,North,350,15.0,15.0,68,0.00,,,0.00,Wunderground v.1.15,2013-02-20 15:15:00,
2013-02-20 09:20:00,19.9,11.0,30.21,North,360,15.0,15.0,68,0.00,,,0.00,Wunderground v.1.15,2013-02-20 15:20:00,
2013-02-20 09:25:00,20.0,11.1,30.21,North,5,14.0,15.0,68,0.00,,,0.00,Wunderground v.1.15,2013-02-20 15:25:00,
2013-02-20 09:30:00,20.2,11.3,30.22,North,360,13.0,16.0,68,0.00,,,0.00,Wunderground v.1.15,2013-02-20 15:30:00,
2013-02-20 09:35:00,20.2,11.0,30.22,North,355,14.0,16.0,67,0.00,,,0.00,Wunderground v.1.15,2013-02-20 15:35:00,
2013-02-20 09:40:00,20.2,11.7,30.22,NNW,344,14.0,14.0,69,0.00,,,0.00,Wunderground v.1.15,2013-02-20 15:40:00,
2013-02-20 09:45:00,20.3,11.7,30.22,NNE,12,13.0,14.0,69,0.00,,,0.00,Wunderground v.1.15,2013-02-20 15:45:00,
2013-02-20 09:50:00,20.2,12.0,30.22,North,11,14.0,14.0,70,0.00,,,0.00,Wunderground v.1.15,2013-02-20 15:50:00,
2013-02-20 09:55:00,20.2,12.6,30.22,North,10,14.0,16.0,72,0.00,,,0.00,Wunderground v.1.15,2013-02-20 15:55:00,
2013-02-20 09:59:00,20.2,12.9,30.22,North,360,13.0,19.0,73,0.00,,,0.00,Wunderground v.1.15,2013-02-20 15:59:00,
2013-02-20 10:05:00,20.2,13.2,30.22,NNW,344,13.0,19.0,74,0.00,,,0.00,Wunderground v.1.15,2013-02-20 16:05:00,
2013-02-20 10:10:00,20.2,13.8,30.22,NNW,336,13.0,17.0,76,0.00,,,0.00,Wunderground v.1.15,2013-02-20 16:10:00,
2013-02-20 10:15:00,20.2,14.1,30.23,NNE,18,14.0,17.0,77,0.00,,,0.00,Wunderground v.1.15,2013-02-20 16:15:00,
2013-02-20 10:20:00,20.3,13.3,30.23,North,11,13.0,14.0,74,0.00,,,0.00,Wunderground v.1.15,2013-02-20 16:20:00,
2013-02-20 10:25:00,20.3,13.6,30.23,North,350,14.0,19.0,75,0.00,,,0.00,Wunderground v.1.15,2013-02-20 16:25:00,
2013-02-20 10:30:00,20.5,12.6,30.24,North,360,14.0,14.0,71,0.00,,,0.00,Wunderground v.1.15,2013-02-20 16:30:00,
2013-02-20 10:35:00,20.8,13.2,30.24,NNW,334,13.0,14.0,72,0.00,,,0.00,Wunderground v.1.15,2013-02-20 16:35:00,
2013-02-20 10:40:00,20.6,13.0,30.24,North,5,13.0,14.0,72,0.00,,,0.00,Wunderground v.1.15,2013-02-20 16:40:00,
2013-02-20 10:45:00,20.6,13.0,30.24,North,360,14.0,14.0,72,0.00,,,0.00,Wunderground v.1.15,2013-02-20 16:45:00,
2013-02-20 10:50:00,20.6,13.0,30.24,North,5,13.0,13.0,72,0.00,,,0.00,Wunderground v.1.15,2013-02-20 16:50:00,
2013-02-20 10:55:00,20.8,13.5,30.24,North,355,12.0,13.0,73,0.00,,,0.00,Wunderground v.1.15,2013-02-20 16:55:00,
2013-02-20 10:59:00,21.1,13.5,30.24,North,355,12.0,15.0,72,0.00,,,0.00,Wunderground v.1.15,2013-02-20 16:59:00,
2013-02-20 11:05:00,21.1,13.5,30.24,NNW,327,13.0,15.0,72,0.00,,,0.00,Wunderground v.1.15,2013-02-20 17:05:00,
2013-02-20 11:10:00,21.1,13.8,30.24,NNW,331,13.0,13.0,73,0.00,,,0.00,Wunderground v.1.15,2013-02-20 17:10:00,
2013-02-20 11:15:00,21.3,14.3,30.25,NNW,348,11.0,13.0,74,0.00,,,0.00,Wunderground v.1.15,2013-02-20 17:15:00,
2013-02-20 11:20:00,21.3,14.3,30.25,North,9,11.0,12.0,74,0.00,,,0.00,Wunderground v.1.15,2013-02-20 17:20:00,
2013-02-20 11:25:00,21.0,14.0,30.25,North,355,13.0,13.0,74,0.00,,,0.00,Wunderground v.1.15,2013-02-20 17:25:00,
2013-02-20 11:30:00,21.1,14.7,30.25,NNW,327,13.0,13.0,76,0.00,,,0.00,Wunderground v.1.15,2013-02-20 17:30:00,
2013-02-20 11:39:00,21.1,14.7,30.25,North,9,12.0,12.0,76,0.00,,,0.00,Wunderground v.1.15,2013-02-20 17:39:00,
2013-02-20 11:44:00,21.4,14.7,30.25,NNW,330,12.0,16.0,75,0.00,,,0.00,Wunderground v.1.15,2013-02-20 17:44:00,
2013-02-20 11:49:00,21.1,14.1,30.25,NNW,337,11.0,12.0,74,0.00,,,0.00,Wunderground v.1.15,2013-02-20 17:49:00,
2013-02-20 11:54:00,21.1,14.1,30.25,NNW,335,12.0,15.0,74,0.00,,,0.00,Wunderground v.1.15,2013-02-20 17:54:00,
2013-02-20 11:59:00,21.1,14.4,30.25,NNW,328,13.0,13.0,75,0.00,,,0.00,Wunderground v.1.15,2013-02-20 17:59:00,
2013-02-20 12:05:00,21.4,15.0,30.25,North,355,12.0,13.0,76,0.00,,,0.00,Wunderground v.1.15,2013-02-20 18:05:00,
2013-02-20 12:10:00,21.3,14.9,30.25,North,355,11.0,21.0,76,0.00,,,0.00,Wunderground v.1.15,2013-02-20 18:10:00,
2013-02-20 12:15:00,21.1,15.0,30.24,NNW,333,13.0,21.0,77,0.00,,,0.00,Wunderground v.1.15,2013-02-20 18:15:00,
2013-02-20 12:20:00,21.3,15.2,30.24,NNW,343,13.0,16.0,77,0.00,,,0.00,Wunderground v.1.15,2013-02-20 18:20:00,
2013-02-20 12:25:00,21.1,14.7,30.24,North,360,13.0,16.0,76,0.00,,,0.00,Wunderground v.1.15,2013-02-20 18:25:00,
2013-02-20 12:30:00,21.3,15.2,30.24,North,360,13.0,13.0,77,0.00,,,0.00,Wunderground v.1.15,2013-02-20 18:30:00,
2013-02-20 12:34:00,21.4,15.0,30.24,NNW,344,12.0,13.0,76,0.00,,,0.00,Wunderground v.1.15,2013-02-20 18:34:00,
2013-02-20 12:39:00,21.3,14.0,30.24,NNW,329,13.0,13.0,73,0.00,,,0.00,Wunderground v.1.15,2013-02-20 18:39:00,
2013-02-20 12:44:00,21.3,14.6,30.24,NNW,345,13.0,15.0,75,0.00,,,0.00,Wunderground v.1.15,2013-02-20 18:44:00,
2013-02-20 12:49:00,21.6,14.3,30.24,NNW,345,14.0,20.0,73,0.00,,,0.00,Wunderground v.1.15,2013-02-20 18:49:00,
2013-02-20 12:55:00,21.3,14.6,30.24,North,349,14.0,20.0,75,0.00,,,0.00,Wunderground v.1.15,2013-02-20 18:55:00,
2013-02-20 13:00:00,21.6,15.2,30.24,North,350,12.0,12.0,76,0.00,,,0.00,Wunderground v.1.15,2013-02-20 19:00:00,
2013-02-20 13:05:00,21.4,14.7,30.23,NNW,327,12.0,12.0,75,0.00,,,0.00,Wunderground v.1.15,2013-02-20 19:05:00,
2013-02-20 13:10:00,21.6,14.9,30.23,North,360,11.0,11.0,75,0.00,,,0.00,Wunderground v.1.15,2013-02-20 19:10:00,
2013-02-20 13:15:00,21.6,13.6,30.24,North,355,12.0,12.0,71,0.00,,,0.00,Wunderground v.1.15,2013-02-20 19:15:00,
2013-02-20 13:20:00,21.8,14.5,30.24,North,355,13.0,14.0,73,0.00,,,0.00,Wunderground v.1.15,2013-02-20 19:20:00,
2013-02-20 13:25:00,21.4,14.4,30.24,NNW,329,13.0,14.0,74,0.00,,,0.00,Wunderground v.1.15,2013-02-20 19:25:00,
2013-02-20 13:30:00,21.6,14.9,30.25,NNW,330,12.0,14.0,75,0.00,,,0.00,Wunderground v.1.15,2013-02-20 19:30:00,
2013-02-20 13:35:00,21.8,15.4,30.25,North,360,11.0,16.0,76,0.00,,,0.00,Wunderground v.1.15,2013-02-20 19:35:00,
2013-02-20 13:40:00,21.8,15.1,30.25,NNW,338,12.0,12.0,75,0.00,,,0.00,Wunderground v.1.15,2013-02-20 19:40:00,
2013-02-20 13:44:00,21.4,14.7,30.25,NNW,333,12.0,12.0,75,0.00,,,0.00,Wunderground v.1.15,2013-02-20 19:44:00,
2013-02-20 13:49:00,21.6,15.2,30.27,NW,316,11.0,11.0,76,0.00,,,0.00,Wunderground v.1.15,2013-02-20 19:49:00,
2013-02-20 13:54:00,21.8,15.7,30.27,NNW,340,8.0,11.0,77,0.00,,,0.00,Wunderground v.1.15,2013-02-20 19:54:00,
2013-02-20 14:00:00,21.8,15.4,30.27,NNW,331,9.0,9.0,76,0.00,,,0.00,Wunderground v.1.15,2013-02-20 20:00:00,
2013-02-20 14:05:00,21.8,15.7,30.28,NW,304,11.0,11.0,77,0.00,,,0.00,Wunderground v.1.15,2013-02-20 20:05:00,
2013-02-20 14:10:00,21.6,15.5,30.28,NW,325,13.0,15.0,77,0.00,,,0.00,Wunderground v.1.15,2013-02-20 20:10:00,
2013-02-20 14:15:00,21.6,16.1,30.30,WNW,296,12.0,15.0,79,0.00,,,0.00,Wunderground v.1.15,2013-02-20 20:15:00,
2013-02-20 14:20:00,21.4,15.9,30.30,NW,325,10.0,14.0,79,0.00,,,0.00,Wunderground v.1.15,2013-02-20 20:20:00,
2013-02-20 14:25:00,21.4,15.9,30.30,NW,325,11.0,15.0,79,0.00,,,0.00,Wunderground v.1.15,2013-02-20 20:25:00,
2013-02-20 14:30:00,21.6,16.4,30.30,NNW,338,12.0,13.0,80,0.00,,,0.00,Wunderground v.1.15,2013-02-20 20:30:00,
2013-02-20 14:35:00,21.6,16.4,30.30,NNW,335,12.0,17.0,80,0.00,,,0.00,Wunderground v.1.15,2013-02-20 20:35:00,
2013-02-20 14:44:00,21.8,16.3,30.30,NNW,327,12.0,12.0,79,0.00,,,0.00,Wunderground v.1.15,2013-02-20 20:44:00,
2013-02-20 14:49:00,21.6,15.8,30.29,NW,320,12.0,17.0,78,0.00,,,0.00,Wunderground v.1.15,2013-02-20 20:49:00,
2013-02-20 14:54:00,21.6,16.1,30.29,North,355,13.0,17.0,79,0.00,,,0.00,Wunderground v.1.15,2013-02-20 20:54:00,
2013-02-20 14:59:00,21.6,16.1,30.29,NNW,346,14.0,14.0,79,0.00,,,0.00,Wunderground v.1.15,2013-02-20 20:59:00,
2013-02-20 15:05:00,21.6,15.8,30.29,NNW,334,13.0,14.0,78,0.00,,,0.00,Wunderground v.1.15,2013-02-20 21:05:00,
2013-02-20 15:10:00,21.6,15.5,30.29,NNW,329,13.0,13.0,77,0.00,,,0.00,Wunderground v.1.15,2013-02-20 21:10:00,
2013-02-20 15:15:00,21.6,15.5,30.29,WNW,302,13.0,13.0,77,0.00,,,0.00,Wunderground v.1.15,2013-02-20 21:15:00,
2013-02-20 15:20:00,21.8,15.7,30.29,NNW,347,13.0,13.0,77,0.00,,,0.00,Wunderground v.1.15,2013-02-20 21:20:00,
2013-02-20 15:25:00,21.8,15.7,30.29,NNW,344,12.0,16.0,77,0.00,,,0.00,Wunderground v.1.15,2013-02-20 21:25:00,
2013-02-20 15:30:00,21.8,15.4,30.29,NW,324,13.0,13.0,76,0.00,,,0.00,Wunderground v.1.15,2013-02-20 21:30:00,
2013-02-20 15:35:00,21.8,15.4,30.29,NNW,348,13.0,13.0,76,0.00,,,0.00,Wunderground v.1.15,2013-02-20 21:35:00,
2013-02-20 15:40:00,21.9,15.8,30.29,NW,312,12.0,12.0,77,0.00,,,0.00,Wunderground v.1.15,2013-02-20 21:40:00,
2013-02-20 15:45:00,21.9,15.5,30.28,NNW,336,12.0,15.0,76,0.00,,,0.00,Wunderground v.1.15,2013-02-20 21:45:00,
2013-02-20 15:49:00,21.9,15.2,30.28,NNW,348,13.0,13.0,75,0.00,,,0.00,Wunderground v.1.15,2013-02-20 21:49:00,
2013-02-20 15:54:00,21.9,15.2,30.28,NNW,348,13.0,13.0,75,0.00,,,0.00,Wunderground v.1.15,2013-02-20 21:54:00,
2013-02-20 16:00:00,22.1,15.7,30.28,North,5,13.0,13.0,76,0.00,,,0.00,Wunderground v.1.15,2013-02-20 22:00:00,
2013-02-20 16:05:00,22.1,15.7,30.27,North,350,12.0,13.0,76,0.00,,,0.00,Wunderground v.1.15,2013-02-20 22:05:00,
2013-02-20 16:10:00,22.1,15.7,30.27,NNW,329,12.0,14.0,76,0.00,,,0.00,Wunderground v.1.15,2013-02-20 22:10:00,
2013-02-20 16:15:00,22.1,15.4,30.28,NNE,17,13.0,15.0,75,0.00,,,0.00,Wunderground v.1.15,2013-02-20 22:15:00,
2013-02-20 16:20:00,22.1,15.4,30.28,North,355,13.0,18.0,75,0.00,,,0.00,Wunderground v.1.15,2013-02-20 22:20:00,
2013-02-20 16:30:00,22.4,16.0,30.28,NNW,344,12.0,15.0,76,0.00,,,0.00,Wunderground v.1.15,2013-02-20 22:30:00,
2013-02-20 16:35:00,22.4,16.3,30.28,North,5,12.0,16.0,77,0.00,,,0.00,Wunderground v.1.15,2013-02-20 22:35:00,
2013-02-20 16:39:00,22.4,16.3,30.28,NNE,13,13.0,14.0,77,0.00,,,0.00,Wunderground v.1.15,2013-02-20 22:39:00,
2013-02-20 16:44:00,22.5,16.4,30.28,NNW,347,13.0,17.0,77,0.00,,,0.00,Wunderground v.1.15,2013-02-20 22:44:00,
2013-02-20 16:49:00,22.7,16.6,30.28,North,360,12.0,12.0,77,0.00,,,0.00,Wunderground v.1.15,2013-02-20 22:49:00,
2013-02-20 16:55:00,22.7,16.6,30.28,North,5,12.0,13.0,77,0.00,,,0.00,Wunderground v.1.15,2013-02-20 22:55:00,
2013-02-20 17:00:00,22.7,16.3,30.28,North,10,13.0,15.0,76,0.00,,,0.00,Wunderground v.1.15,2013-02-20 23:00:00,
2013-02-20 17:10:00,22.9,15.5,30.28,NNE,14,13.0,15.0,73,0.00,,,0.00,Wunderground v.1.15,2013-02-20 23:10:00,
2013-02-20 17:15:00,22.9,15.2,30.28,NNE,24,12.0,15.0,72,0.00,,,0.00,Wunderground v.1.15,2013-02-20 23:15:00,
2013-02-20 17:20:00,22.9,15.2,30.29,NNE,32,12.0,12.0,72,0.00,,,0.00,Wunderground v.1.15,2013-02-20 23:20:00,
2013-02-20 17:25:00,22.9,15.2,30.29,North,355,12.0,13.0,72,0.00,,,0.00,Wunderground v.1.15,2013-02-20 23:25:00,
2013-02-20 17:30:00,22.9,15.2,30.29,North,5,11.0,11.0,72,0.00,,,0.00,Wunderground v.1.15,2013-02-20 23:30:00,
2013-02-20 17:35:00,22.9,14.9,30.29,North,5,10.0,11.0,71,0.00,,,0.00,Wunderground v.1.15,2013-02-20 23:35:00,
2013-02-20 17:40:00,22.9,15.2,30.29,NNE,31,10.0,10.0,72,0.00,,,0.00,Wunderground v.1.15,2013-02-20 23:40:00,
2013-02-20 17:45:00,22.9,15.2,30.30,NNE,17,10.0,14.0,72,0.00,,,0.00,Wunderground v.1.15,2013-02-20 23:45:00,
2013-02-20 17:50:00,22.9,14.6,30.30,NNW,346,11.0,11.0,70,0.00,,,0.00,Wunderground v.1.15,2013-02-20 23:50:00,
2013-02-20 17:55:00,22.9,14.6,30.30,North,9,12.0,12.0,70,0.00,,,0.00,Wunderground v.1.15,2013-02-20 23:55:00,
2013-02-20 18:00:00,23.0,14.7,30.30,NNE,23,11.0,12.0,70,0.00,,,0.00,Wunderground v.1.15,2013-02-21 00:00:00,
2013-02-20 18:05:00,23.0,14.7,30.30,North,360,12.0,12.0,70,0.00,,,0.00,Wunderground v.1.15,2013-02-21 00:05:00,
2013-02-20 18:14:00,23.0,15.0,30.30,NNW,344,9.0,15.0,71,0.00,,,0.00,Wunderground v.1.15,2013-02-21 00:14:00,
2013-02-20 18:19:00,23.0,15.6,30.30,NNW,348,10.0,12.0,73,0.00,,,0.00,Wunderground v.1.15,2013-02-21 00:19:00,
2013-02-20 18:24:00,23.0,15.3,30.30,North,360,12.0,12.0,72,0.00,,,0.00,Wunderground v.1.15,2013-02-21 00:24:00,
2013-02-20 18:29:00,23.0,15.3,30.30,North,5,12.0,12.0,72,0.00,,,0.00,Wunderground v.1.15,2013-02-21 00:29:00,
2013-02-20 18:35:00,23.0,15.3,30.31,NNE,29,12.0,12.0,72,0.00,,,0.00,Wunderground v.1.15,2013-02-21 00:35:00,
2013-02-20 18:40:00,23.0,15.3,30.31,NNW,347,12.0,14.0,72,0.00,,,0.00,Wunderground v.1.15,2013-02-21 00:40:00,
2013-02-20 18:45:00,23.0,15.3,30.31,NNE,19,11.0,14.0,72,0.00,,,0.00,Wunderground v.1.15,2013-02-21 00:45:00,
2013-02-20 18:50:00,23.2,15.8,30.31,NNE,30,10.0,11.0,73,0.00,,,0.00,Wunderground v.1.15,2013-02-21 00:50:00,
2013-02-20 18:55:00,23.0,15.6,30.31,NNE,16,9.0,11.0,73,0.00,,,0.00,Wunderground v.1.15,2013-02-21 00:55:00,
2013-02-20 19:00:00,23.0,15.3,30.30,North,355,11.0,12.0,72,0.00,,,0.00,Wunderground v.1.15,2013-02-21 01:00:00,
2013-02-20 19:05:00,22.9,15.8,30.30,North,5,11.0,12.0,74,0.00,,,0.00,Wunderground v.1.15,2013-02-21 01:05:00,
2013-02-20 19:09:00,23.0,15.9,30.30,North,5,11.0,11.0,74,0.00,,,0.00,Wunderground v.1.15,2013-02-21 01:09:00,
2013-02-20 19:15:00,23.0,15.6,30.31,NNE,30,10.0,11.0,73,0.00,,,0.00,Wunderground v.1.15,2013-02-21 01:15:00,
2013-02-20 19:19:00,23.0,15.6,30.31,NE,41,9.0,9.0,73,0.00,,,0.00,Wunderground v.1.15,2013-02-21 01:19:00,
2013-02-20 19:24:00,23.0,15.9,30.31,NNE,18,9.0,11.0,74,0.00,,,0.00,Wunderground v.1.15,2013-02-21 01:24:00,
2013-02-20 19:29:00,23.2,16.1,30.31,North,9,11.0,11.0,74,0.00,,,0.00,Wunderground v.1.15,2013-02-21 01:29:00,
2013-02-20 19:35:00,23.2,15.8,30.30,NE,34,10.0,13.0,73,0.00,,,0.00,Wunderground v.1.15,2013-02-21 01:35:00,
2013-02-20 19:40:00,23.2,15.8,30.30,NNE,19,8.0,8.0,73,0.00,,,0.00,Wunderground v.1.15,2013-02-21 01:40:00,
2013-02-20 19:45:00,23.2,15.8,30.31,North,9,7.0,10.0,73,0.00,,,0.00,Wunderground v.1.15,2013-02-21 01:45:00,
2013-02-20 19:50:00,23.2,15.2,30.31,NNE,12,7.0,10.0,71,0.00,,,0.00,Wunderground v.1.15,2013-02-21 01:50:00,
2013-02-20 19:55:00,23.3,15.6,30.31,NNE,16,9.0,10.0,72,0.00,,,0.00,Wunderground v.1.15,2013-02-21 01:55:00,
2013-02-20 20:00:00,23.3,16.2,30.30,NNE,29,9.0,9.0,74,0.00,,,0.00,Wunderground v.1.15,2013-02-21 02:00:00,
2013-02-20 20:05:00,23.3,16.2,30.30,NE,35,10.0,10.0,74,0.00,,,0.00,Wunderground v.1.15,2013-02-21 02:05:00,
2013-02-20 20:09:00,23.5,16.1,30.30,NNE,30,9.0,9.0,73,0.00,,,0.00,Wunderground v.1.15,2013-02-21 02:09:00,
2013-02-20 20:14:00,23.5,16.4,30.30,NE,49,8.0,9.0,74,0.00,,,0.00,Wunderground v.1.15,2013-02-21 02:14:00,
2013-02-20 20:20:00,23.3,15.9,30.30,NNE,15,7.0,8.0,73,0.00,,,0.00,Wunderground v.1.15,2013-02-21 02:20:00,
2013-02-20 20:25:00,23.5,16.1,30.30,NE,36,8.0,8.0,73,0.00,,,0.00,Wunderground v.1.15,2013-02-21 02:25:00,
2013-02-20 20:30:00,23.5,16.1,30.30,NNE,31,8.0,8.0,73,0.00,,,0.00,Wunderground v.1.15,2013-02-21 02:30:00,
2013-02-20 20:35:00,23.5,15.8,30.30,NNE,25,6.0,8.0,72,0.00,,,0.00,Wunderground v.1.15,2013-02-21 02:35:00,
2013-02-20 20:40:00,23.5,15.8,30.30,NNE,15,6.0,6.0,72,0.00,,,0.00,Wunderground v.1.15,2013-02-21 02:40:00,
2013-02-20 20:45:00,23.6,15.9,30.29,NNE,30,6.0,6.0,72,0.00,,,0.00,Wunderground v.1.15,2013-02-21 02:45:00,
2013-02-20 20:50:00,23.6,15.2,30.29,NE,55,5.0,5.0,70,0.00,,,0.00,Wunderground v.1.15,2013-02-21 02:50:00,
2013-02-20 20:55:00,23.8,15.8,30.29,NE,35,4.0,5.0,71,0.00,,,0.00,Wunderground v.1.15,2013-02-21 02:55:00,
2013-02-20 21:00:00,23.8,16.1,30.29,NNE,17,4.0,9.0,72,0.00,,,0.00,Wunderground v.1.15,2013-02-21 03:00:00,
2013-02-20 21:05:00,23.9,16.2,30.29,NNE,19,6.0,9.0,72,0.00,,,0.00,Wunderground v.1.15,2013-02-21 03:05:00,
2013-02-20 21:10:00,23.9,15.9,30.29,NE,43,7.0,7.0,71,0.00,,,0.00,Wunderground v.1.15,2013-02-21 03:10:00,
2013-02-20 21:15:00,24.1,16.1,30.29,NNE,31,6.0,7.0,71,0.00,,,0.00,Wunderground v.1.15,2013-02-21 03:15:00,
2013-02-20 21:20:00,24.2,16.1,30.29,NNE,17,7.0,7.0,71,0.00,,,0.00,Wunderground v.1.15,2013-02-21 03:20:00,
2013-02-20 21:25:00,24.2,16.1,30.29,NE,47,6.0,7.0,71,0.00,,,0.00,Wunderground v.1.15,2013-02-21 03:25:00,
2013-02-20 21:30:00,24.2,15.8,30.30,North,360,5.0,6.0,70,0.00,,,0.00,Wunderground v.1.15,2013-02-21 03:30:00,
2013-02-20 21:35:00,24.2,15.8,30.30,NNE,28,5.0,6.0,70,0.00,,,0.00,Wunderground v.1.15,2013-02-21 03:35:00,
2013-02-20 21:39:00,24.4,16.0,30.30,NNE,17,5.0,5.0,70,0.00,,,0.00,Wunderground v.1.15,2013-02-21 03:39:00,
2013-02-20 21:44:00,24.5,16.1,30.30,North,9,5.0,5.0,70,0.00,,,0.00,Wunderground v.1.15,2013-02-21 03:44:00,
2013-02-20 21:50:00,24.7,16.3,30.30,North,9,6.0,9.0,70,0.00,,,0.00,Wunderground v.1.15,2013-02-21 03:50:00,
2013-02-20 21:55:00,24.8,16.4,30.30,NNE,32,7.0,9.0,70,0.00,,,0.00,Wunderground v.1.15,2013-02-21 03:55:00,
2013-02-20 21:59:00,25.0,16.6,30.30,NNE,17,9.0,13.0,70,0.00,,,0.00,Wunderground v.1.15,2013-02-21 03:59:00,
2013-02-20 22:05:00,25.1,16.4,30.30,North,5,11.0,13.0,69,0.00,,,0.00,Wunderground v.1.15,2013-02-21 04:05:00,
2013-02-20 22:10:00,25.1,16.7,30.30,North,10,10.0,10.0,70,0.00,,,0.00,Wunderground v.1.15,2013-02-21 04:10:00,
2013-02-20 22:15:00,25.1,16.7,30.29,NE,53,8.0,10.0,70,0.00,,,0.00,Wunderground v.1.15,2013-02-21 04:15:00,
2013-02-20 22:20:00,25.3,16.5,30.29,ENE,58,6.0,6.0,69,0.00,,,0.00,Wunderground v.1.15,2013-02-21 04:20:00,
2013-02-20 22:24:00,25.3,16.2,30.29,NE,50,4.0,6.0,68,0.00,,,0.00,Wunderground v.1.15,2013-02-21 04:24:00,
2013-02-20 22:29:00,25.3,16.2,30.29,NE,34,5.0,6.0,68,0.00,,,0.00,Wunderground v.1.15,2013-02-21 04:29:00,
2013-02-20 22:34:00,25.4,16.3,30.29,NNE,21,6.0,6.0,68,0.00,,,0.00,Wunderground v.1.15,2013-02-21 04:34:00,
2013-02-20 22:39:00,25.4,16.0,30.29,NE,54,6.0,6.0,67,0.00,,,0.00,Wunderground v.1.15,2013-02-21 04:39:00,
2013-02-20 22:45:00,25.6,15.8,30.29,NNE,17,6.0,6.0,66,0.00,,,0.00,Wunderground v.1.15,2013-02-21 04:45:00,
2013-02-20 22:50:00,25.6,15.8,30.29,NNE,14,7.0,7.0,66,0.00,,,0.00,Wunderground v.1.15,2013-02-21 04:50:00,
2013-02-20 22:55:00,25.6,16.2,30.29,ENE,58,5.0,7.0,67,0.00,,,0.00,Wunderground v.1.15,2013-02-21 04:55:00,
2013-02-20 23:00:00,25.7,15.9,30.29,NNE,26,4.0,4.0,66,0.00,,,0.00,Wunderground v.1.15,2013-02-21 05:00:00,
2013-02-20 23:05:00,25.7,15.9,30.29,NNE,32,6.0,6.0,66,0.00,,,0.00,Wunderground v.1.15,2013-02-21 05:05:00,
2013-02-20 23:10:00,25.8,16.3,30.29,NNE,24,6.0,9.0,67,0.00,,,0.00,Wunderground v.1.15,2013-02-21 05:10:00,
2013-02-20 23:15:00,25.8,16.3,30.28,NNE,22,7.0,9.0,67,0.00,,,0.00,Wunderground v.1.15,2013-02-21 05:15:00,
2013-02-20 23:20:00,26.0,16.5,30.28,NNE,33,6.0,7.0,67,0.00,,,0.00,Wunderground v.1.15,2013-02-21 05:20:00,
2013-02-20 23:24:00,26.0,16.5,30.28,NE,35,7.0,7.0,67,0.00,,,0.00,Wunderground v.1.15,2013-02-21 05:24:00,
2013-02-20 23:30:00,26.1,17.6,30.28,NNE,15,8.0,8.0,70,0.00,,,0.00,Wunderground v.1.15,2013-02-21 05:30:00,
2013-02-20 23:35:00,26.1,17.0,30.28,NNE,17,7.0,8.0,68,0.00,,,0.00,Wunderground v.1.15,2013-02-21 05:35:00,
2013-02-20 23:40:00,26.3,17.2,30.28,North,10,7.0,7.0,68,0.00,,,0.00,Wunderground v.1.15,2013-02-21 05:40:00,
2013-02-20 23:49:00,26.3,17.5,30.29,NNE,28,5.0,5.0,69,0.00,,,0.00,Wunderground v.1.15,2013-02-21 05:49:00,
2013-02-20 23:54:00,26.3,17.5,30.29,North,5,4.0,5.0,69,0.00,,,0.00,Wunderground v.1.15,2013-02-21 05:54:00,